owner,sensor,date,latitude,longitude,vertical_datum,sea_water_practical_salinity,qcFlag 
LUMCON,ioos:station:LUMCON:101:1,2019-07-01T00:00:00Z,29.2533,-90.6633,1.729,2.6,11111222 
LUMCON,ioos:station:LUMCON:101:1,2019-07-01T00:15:00Z,29.2533,-90.6633,1.726,2.62,11111222 
LUMCON,ioos:station:LUMCON:101:1,2019-07-01T00:30:00Z,29.2533,-90.6633,1.721,2.63,11111222 
LUMCON,ioos:station:LUMCON:101:1,2019-07-01T00:45:00Z,29.2533,-90.6633,1.71,2.64,11111222 
LUMCON,ioos:station:LUMCON:101:1,2019-07-01T01:00:00Z,29.2533,-90.6633,1.702,2.65,11111222 
LUMCON,ioos:station:LUMCON:101:1,2019-07-01T01:15:00Z,29.2533,-90.6633,1.697,2.66,11111222 
LUMCON,ioos:station:LUMCON:101:1,2019-07-01T01:30:00Z,29.2533,-90.6633,1.689,2.66,11111222 
LUMCON,ioos:station:LUMCON:101:1,2019-07-01T01:45:00Z,29.2533,-90.6633,1.681,2.68,11111222 
LUMCON,ioos:station:LUMCON:101:1,2019-07-01T02:00:00Z,29.2533,-90.6633,1.679,2.69,11111222 
LUMCON,ioos:station:LUMCON:101:1,2019-07-01T02:15:00Z,29.2533,-90.6633,1.682,2.69,11111222 
LUMCON,ioos:station:LUMCON:101:1,2019-07-01T02:30:00Z,29.2533,-90.6633,1.684,2.7,11111222 
LUMCON,ioos:station:LUMCON:101:1,2019-07-01T02:45:00Z,29.2533,-90.6633,1.69,2.69,11111222 
LUMCON,ioos:station:LUMCON:101:1,2019-07-01T03:00:00Z,29.2533,-90.6633,1.703,2.68,11111222 
LUMCON,ioos:station:LUMCON:101:1,2019-07-01T03:15:00Z,29.2533,-90.6633,1.7,2.68,11111222 
LUMCON,ioos:station:LUMCON:101:1,2019-07-01T03:30:00Z,29.2533,-90.6633,1.706,2.68,11111222 
LUMCON,ioos:station:LUMCON:101:1,2019-07-01T03:45:00Z,29.2533,-90.6633,1.714,2.67,11111222 
LUMCON,ioos:station:LUMCON:101:1,2019-07-01T04:00:00Z,29.2533,-90.6633,1.721,2.66,11111222 
LUMCON,ioos:station:LUMCON:101:1,2019-07-01T04:15:00Z,29.2533,-90.6633,1.731,2.64,11111222 
LUMCON,ioos:station:LUMCON:101:1,2019-07-01T04:30:00Z,29.2533,-90.6633,1.746,2.63,11111222 
LUMCON,ioos:station:LUMCON:101:1,2019-07-01T04:45:00Z,29.2533,-90.6633,1.77,2.62,11111222 
LUMCON,ioos:station:LUMCON:101:1,2019-07-01T05:00:00Z,29.2533,-90.6633,1.787,2.48,11111222 
LUMCON,ioos:station:LUMCON:101:1,2019-07-01T05:15:00Z,29.2533,-90.6633,1.803,2.43,11111222 
LUMCON,ioos:station:LUMCON:101:1,2019-07-01T05:30:00Z,29.2533,-90.6633,1.818,2.37,11111222 
LUMCON,ioos:station:LUMCON:101:1,2019-07-01T05:45:00Z,29.2533,-90.6633,1.825,2.33,11111222 
LUMCON,ioos:station:LUMCON:101:1,2019-07-01T06:00:00Z,29.2533,-90.6633,1.835,2.31,11111222 
LUMCON,ioos:station:LUMCON:101:1,2019-07-01T06:15:00Z,29.2533,-90.6633,1.857,2.3,11111222 
LUMCON,ioos:station:LUMCON:101:1,2019-07-01T21:30:00Z,29.2533,-90.6633,1.903,2.84,11111222 
LUMCON,ioos:station:LUMCON:101:1,2019-07-01T21:45:00Z,29.2533,-90.6633,1.885,2.83,11111222 
LUMCON,ioos:station:LUMCON:101:1,2019-07-01T22:00:00Z,29.2533,-90.6633,1.87,2.81,11111222 
LUMCON,ioos:station:LUMCON:101:1,2019-07-01T22:15:00Z,29.2533,-90.6633,1.858,2.81,11111222 
LUMCON,ioos:station:LUMCON:101:1,2019-07-01T22:30:00Z,29.2533,-90.6633,1.848,2.8,11111222 
LUMCON,ioos:station:LUMCON:101:1,2019-07-01T22:45:00Z,29.2533,-90.6633,1.84,2.79,11111222 
LUMCON,ioos:station:LUMCON:101:1,2019-07-01T23:00:00Z,29.2533,-90.6633,1.832,2.8,11111222 
LUMCON,ioos:station:LUMCON:101:1,2019-07-01T23:15:00Z,29.2533,-90.6633,1.812,2.8,11111222 
LUMCON,ioos:station:LUMCON:101:1,2019-07-01T23:30:00Z,29.2533,-90.6633,1.8,2.79,11111222 
LUMCON,ioos:station:LUMCON:101:1,2019-07-01T23:45:00Z,29.2533,-90.6633,1.786,2.79,11111222 
LUMCON,ioos:station:LUMCON:101:1,2019-07-02T00:00:00Z,29.2533,-90.6633,1.777,2.77,11111222 
LUMCON,ioos:station:LUMCON:101:1,2019-07-02T00:15:00Z,29.2533,-90.6633,1.763,2.79,11111222 
LUMCON,ioos:station:LUMCON:101:1,2019-07-02T00:30:00Z,29.2533,-90.6633,1.752,2.78,11111222 
LUMCON,ioos:station:LUMCON:101:1,2019-07-02T00:45:00Z,29.2533,-90.6633,1.743,2.78,11111222 
LUMCON,ioos:station:LUMCON:101:1,2019-07-02T01:00:00Z,29.2533,-90.6633,1.736,2.77,11111222 
LUMCON,ioos:station:LUMCON:101:1,2019-07-02T01:15:00Z,29.2533,-90.6633,1.732,2.78,11111222 
LUMCON,ioos:station:LUMCON:101:1,2019-07-02T01:30:00Z,29.2533,-90.6633,1.733,2.78,11111222 
LUMCON,ioos:station:LUMCON:101:1,2019-07-02T01:45:00Z,29.2533,-90.6633,1.73,2.78,11111222 
LUMCON,ioos:station:LUMCON:101:1,2019-07-02T02:00:00Z,29.2533,-90.6633,1.722,2.78,11111222 
LUMCON,ioos:station:LUMCON:101:1,2019-07-02T02:15:00Z,29.2533,-90.6633,1.707,2.78,11111222 
LUMCON,ioos:station:LUMCON:101:1,2019-07-02T02:30:00Z,29.2533,-90.6633,1.692,2.77,11111222 
LUMCON,ioos:station:LUMCON:101:1,2019-07-02T02:45:00Z,29.2533,-90.6633,1.681,2.77,11111222 
LUMCON,ioos:station:LUMCON:101:1,2019-07-02T03:00:00Z,29.2533,-90.6633,1.676,2.78,11111222 
LUMCON,ioos:station:LUMCON:101:1,2019-07-02T03:15:00Z,29.2533,-90.6633,1.668,2.77,11111222 
LUMCON,ioos:station:LUMCON:101:1,2019-07-02T03:30:00Z,29.2533,-90.6633,1.667,2.79,11111222 
LUMCON,ioos:station:LUMCON:101:1,2019-07-02T03:45:00Z,29.2533,-90.6633,1.684,2.77,11111222 
LUMCON,ioos:station:LUMCON:101:1,2019-07-02T04:00:00Z,29.2533,-90.6633,1.693,2.77,11111222 
LUMCON,ioos:station:LUMCON:101:1,2019-07-02T04:15:00Z,29.2533,-90.6633,1.707,2.77,11111222 
LUMCON,ioos:station:LUMCON:101:1,2019-07-02T04:30:00Z,29.2533,-90.6633,1.715,2.76,11111222 
LUMCON,ioos:station:LUMCON:101:1,2019-07-02T04:45:00Z,29.2533,-90.6633,1.721,2.75,11111222 
LUMCON,ioos:station:LUMCON:101:1,2019-07-02T05:00:00Z,29.2533,-90.6633,1.722,2.76,11111222 
LUMCON,ioos:station:LUMCON:101:1,2019-07-02T05:15:00Z,29.2533,-90.6633,1.729,2.8,11111222 
LUMCON,ioos:station:LUMCON:101:1,2019-07-02T05:30:00Z,29.2533,-90.6633,1.734,2.8,11111222 
LUMCON,ioos:station:LUMCON:101:1,2019-07-02T05:45:00Z,29.2533,-90.6633,1.737,2.79,11111222 
LUMCON,ioos:station:LUMCON:101:1,2019-07-02T06:00:00Z,29.2533,-90.6633,1.747,2.79,11111222 
LUMCON,ioos:station:LUMCON:101:1,2019-07-02T06:15:00Z,29.2533,-90.6633,1.763,2.81,11111222 
LUMCON,ioos:station:LUMCON:101:1,2019-07-02T06:30:00Z,29.2533,-90.6633,1.772,2.81,11111222 
LUMCON,ioos:station:LUMCON:101:1,2019-07-02T06:45:00Z,29.2533,-90.6633,1.787,2.84,11111222 
LUMCON,ioos:station:LUMCON:101:1,2019-07-02T07:00:00Z,29.2533,-90.6633,1.801,2.85,11111222 
LUMCON,ioos:station:LUMCON:101:1,2019-07-02T07:15:00Z,29.2533,-90.6633,1.82,2.9,11111222 
LUMCON,ioos:station:LUMCON:101:1,2019-07-02T07:30:00Z,29.2533,-90.6633,1.836,2.91,11111222 
LUMCON,ioos:station:LUMCON:101:1,2019-07-02T07:45:00Z,29.2533,-90.6633,1.852,2.94,11111222 
LUMCON,ioos:station:LUMCON:101:1,2019-07-02T08:00:00Z,29.2533,-90.6633,1.869,2.98,11111222 
LUMCON,ioos:station:LUMCON:101:1,2019-07-02T08:15:00Z,29.2533,-90.6633,1.887,3.04,11111222 
LUMCON,ioos:station:LUMCON:101:1,2019-07-02T08:30:00Z,29.2533,-90.6633,1.902,3.18,11111222 
LUMCON,ioos:station:LUMCON:101:1,2019-07-02T08:45:00Z,29.2533,-90.6633,1.914,3.21,11111222 
LUMCON,ioos:station:LUMCON:101:1,2019-07-02T09:00:00Z,29.2533,-90.6633,1.926,3.24,11111222 
LUMCON,ioos:station:LUMCON:101:1,2019-07-02T09:15:00Z,29.2533,-90.6633,1.936,3.24,11111222 
LUMCON,ioos:station:LUMCON:101:1,2019-07-02T09:30:00Z,29.2533,-90.6633,1.947,3.24,11111222 
LUMCON,ioos:station:LUMCON:101:1,2019-07-02T09:45:00Z,29.2533,-90.6633,1.958,3.24,11111222 
LUMCON,ioos:station:LUMCON:101:1,2019-07-02T10:00:00Z,29.2533,-90.6633,1.969,3.24,11111222 
LUMCON,ioos:station:LUMCON:101:1,2019-07-02T10:15:00Z,29.2533,-90.6633,1.976,3.23,11111222 
LUMCON,ioos:station:LUMCON:101:1,2019-07-02T10:30:00Z,29.2533,-90.6633,1.987,3.22,11111222 
LUMCON,ioos:station:LUMCON:101:1,2019-07-02T10:45:00Z,29.2533,-90.6633,1.995,3.23,11111222 
LUMCON,ioos:station:LUMCON:101:1,2019-07-02T11:00:00Z,29.2533,-90.6633,2.002,3.23,11111222 
LUMCON,ioos:station:LUMCON:101:1,2019-07-02T11:15:00Z,29.2533,-90.6633,2.01,3.23,11111222 
LUMCON,ioos:station:LUMCON:101:1,2019-07-02T11:30:00Z,29.2533,-90.6633,2.019,3.27,11111222 
LUMCON,ioos:station:LUMCON:101:1,2019-07-02T11:45:00Z,29.2533,-90.6633,2.027,3.31,11111222 
LUMCON,ioos:station:LUMCON:101:1,2019-07-02T12:00:00Z,29.2533,-90.6633,2.034,3.38,11111222 
LUMCON,ioos:station:LUMCON:101:1,2019-07-02T12:15:00Z,29.2533,-90.6633,2.042,3.5,11111222 
LUMCON,ioos:station:LUMCON:101:1,2019-07-02T12:30:00Z,29.2533,-90.6633,2.052,3.51,11111222 
LUMCON,ioos:station:LUMCON:101:1,2019-07-02T12:45:00Z,29.2533,-90.6633,2.06,3.56,11111222 
LUMCON,ioos:station:LUMCON:101:1,2019-07-02T13:00:00Z,29.2533,-90.6633,2.07,3.59,11111222 
LUMCON,ioos:station:LUMCON:101:1,2019-07-02T13:15:00Z,29.2533,-90.6633,2.076,3.63,11111222 
LUMCON,ioos:station:LUMCON:101:1,2019-07-02T13:30:00Z,29.2533,-90.6633,2.084,3.69,11111222 
LUMCON,ioos:station:LUMCON:101:1,2019-07-02T13:45:00Z,29.2533,-90.6633,2.091,3.72,11111222 
LUMCON,ioos:station:LUMCON:101:1,2019-07-02T14:00:00Z,29.2533,-90.6633,2.095,3.8,11111222 
LUMCON,ioos:station:LUMCON:101:1,2019-07-02T14:15:00Z,29.2533,-90.6633,2.101,3.85,11111222 
LUMCON,ioos:station:LUMCON:101:1,2019-07-02T14:30:00Z,29.2533,-90.6633,2.105,3.87,11111222 
LUMCON,ioos:station:LUMCON:101:1,2019-07-02T14:45:00Z,29.2533,-90.6633,2.109,3.92,11111222 
LUMCON,ioos:station:LUMCON:101:1,2019-07-02T15:00:00Z,29.2533,-90.6633,2.108,3.96,11111222 
LUMCON,ioos:station:LUMCON:101:1,2019-07-02T15:15:00Z,29.2533,-90.6633,2.12,3.94,11111222 
LUMCON,ioos:station:LUMCON:101:1,2019-07-02T15:30:00Z,29.2533,-90.6633,2.135,3.88,11111222 
LUMCON,ioos:station:LUMCON:101:1,2019-07-02T15:45:00Z,29.2533,-90.6633,2.153,3.98,11111222 
LUMCON,ioos:station:LUMCON:101:1,2019-07-02T16:00:00Z,29.2533,-90.6633,2.125,3.93,11111222 
LUMCON,ioos:station:LUMCON:101:1,2019-07-02T16:15:00Z,29.2533,-90.6633,2.099,3.84,11111222 
LUMCON,ioos:station:LUMCON:101:1,2019-07-02T16:30:00Z,29.2533,-90.6633,2.08,3.91,11111222 
LUMCON,ioos:station:LUMCON:101:1,2019-07-02T16:45:00Z,29.2533,-90.6633,2.09,3.87,11111222 
LUMCON,ioos:station:LUMCON:101:1,2019-07-02T17:00:00Z,29.2533,-90.6633,2.08,3.81,11111222 
LUMCON,ioos:station:LUMCON:101:1,2019-07-02T17:15:00Z,29.2533,-90.6633,2.069,3.72,11111222 
LUMCON,ioos:station:LUMCON:101:1,2019-07-02T17:30:00Z,29.2533,-90.6633,2.067,3.67,11111222 
LUMCON,ioos:station:LUMCON:101:1,2019-07-02T17:45:00Z,29.2533,-90.6633,2.069,3.63,11111222 
LUMCON,ioos:station:LUMCON:101:1,2019-07-02T18:00:00Z,29.2533,-90.6633,2.081,3.62,11111222 
LUMCON,ioos:station:LUMCON:101:1,2019-07-02T18:15:00Z,29.2533,-90.6633,2.09,3.62,11111222 
LUMCON,ioos:station:LUMCON:101:1,2019-07-02T18:30:00Z,29.2533,-90.6633,2.073,3.62,11111222 
LUMCON,ioos:station:LUMCON:101:1,2019-07-02T18:45:00Z,29.2533,-90.6633,2.058,3.66,11111222 
LUMCON,ioos:station:LUMCON:101:1,2019-07-02T19:00:00Z,29.2533,-90.6633,2.045,3.6,11111222 
LUMCON,ioos:station:LUMCON:101:1,2019-07-02T19:15:00Z,29.2533,-90.6633,2.031,3.56,11111222 
LUMCON,ioos:station:LUMCON:101:1,2019-07-02T19:30:00Z,29.2533,-90.6633,2.027,3.49,11111222 
LUMCON,ioos:station:LUMCON:101:1,2019-07-02T19:45:00Z,29.2533,-90.6633,2.029,3.47,11111222 
LUMCON,ioos:station:LUMCON:101:1,2019-07-02T20:00:00Z,29.2533,-90.6633,2.033,3.43,11111222 
LUMCON,ioos:station:LUMCON:101:1,2019-07-02T20:15:00Z,29.2533,-90.6633,1.999,3.39,11111222 
LUMCON,ioos:station:LUMCON:101:1,2019-07-02T20:30:00Z,29.2533,-90.6633,1.966,3.33,11111222 
LUMCON,ioos:station:LUMCON:101:1,2019-07-02T20:45:00Z,29.2533,-90.6633,1.95,3.28,11111222 
LUMCON,ioos:station:LUMCON:101:1,2019-07-02T21:00:00Z,29.2533,-90.6633,1.933,3.27,11111222 
LUMCON,ioos:station:LUMCON:101:1,2019-07-02T21:15:00Z,29.2533,-90.6633,1.926,3.22,11111222 
LUMCON,ioos:station:LUMCON:101:1,2019-07-02T21:30:00Z,29.2533,-90.6633,1.917,3.17,11111222 
LUMCON,ioos:station:LUMCON:101:1,2019-07-02T21:45:00Z,29.2533,-90.6633,1.904,3.11,11111222 
LUMCON,ioos:station:LUMCON:101:1,2019-07-02T22:00:00Z,29.2533,-90.6633,1.89,3.07,11111222 
LUMCON,ioos:station:LUMCON:101:1,2019-07-02T22:15:00Z,29.2533,-90.6633,1.878,3.07,11111222 
LUMCON,ioos:station:LUMCON:101:1,2019-07-02T22:30:00Z,29.2533,-90.6633,1.864,3.04,11111222 
LUMCON,ioos:station:LUMCON:101:1,2019-07-02T22:45:00Z,29.2533,-90.6633,1.854,3.02,11111222 
LUMCON,ioos:station:LUMCON:101:1,2019-07-02T23:00:00Z,29.2533,-90.6633,1.837,3.01,11111222 
LUMCON,ioos:station:LUMCON:101:1,2019-07-02T23:15:00Z,29.2533,-90.6633,1.823,2.96,11111222 
LUMCON,ioos:station:LUMCON:101:1,2019-07-02T23:30:00Z,29.2533,-90.6633,1.809,2.96,11111222 
LUMCON,ioos:station:LUMCON:101:1,2019-07-02T23:45:00Z,29.2533,-90.6633,1.794,2.96,11111222 
LUMCON,ioos:station:LUMCON:101:1,2019-07-03T00:00:00Z,29.2533,-90.6633,1.784,2.94,11111222 
LUMCON,ioos:station:LUMCON:101:1,2019-07-03T00:15:00Z,29.2533,-90.6633,1.772,2.92,11111222 
LUMCON,ioos:station:LUMCON:101:1,2019-07-03T00:30:00Z,29.2533,-90.6633,1.754,2.92,11111222 
LUMCON,ioos:station:LUMCON:101:1,2019-07-03T00:45:00Z,29.2533,-90.6633,1.74,2.9,11111222 
LUMCON,ioos:station:LUMCON:101:1,2019-07-03T01:00:00Z,29.2533,-90.6633,1.725,2.91,11111222 
LUMCON,ioos:station:LUMCON:101:1,2019-07-03T01:15:00Z,29.2533,-90.6633,1.715,2.87,11111222 
LUMCON,ioos:station:LUMCON:101:1,2019-07-03T01:30:00Z,29.2533,-90.6633,1.707,2.88,11111222 
LUMCON,ioos:station:LUMCON:101:1,2019-07-03T01:45:00Z,29.2533,-90.6633,1.697,2.86,11111222 
LUMCON,ioos:station:LUMCON:101:1,2019-07-03T02:00:00Z,29.2533,-90.6633,1.684,2.87,11111222 
LUMCON,ioos:station:LUMCON:101:1,2019-07-03T02:15:00Z,29.2533,-90.6633,1.671,2.84,11111222 
LUMCON,ioos:station:LUMCON:101:1,2019-07-03T02:30:00Z,29.2533,-90.6633,1.658,2.84,11111222 
LUMCON,ioos:station:LUMCON:101:1,2019-07-03T02:45:00Z,29.2533,-90.6633,1.647,2.84,11111222 
LUMCON,ioos:station:LUMCON:101:1,2019-07-03T03:00:00Z,29.2533,-90.6633,1.636,2.83,11111222 
LUMCON,ioos:station:LUMCON:101:1,2019-07-03T03:15:00Z,29.2533,-90.6633,1.629,2.82,11111222 
LUMCON,ioos:station:LUMCON:101:1,2019-07-03T03:30:00Z,29.2533,-90.6633,1.629,2.83,11111222 
LUMCON,ioos:station:LUMCON:101:1,2019-07-03T03:45:00Z,29.2533,-90.6633,1.616,2.83,11111222 
LUMCON,ioos:station:LUMCON:101:1,2019-07-03T04:00:00Z,29.2533,-90.6633,1.613,2.82,11111222 
LUMCON,ioos:station:LUMCON:101:1,2019-07-03T04:15:00Z,29.2533,-90.6633,1.611,2.83,11111222 
LUMCON,ioos:station:LUMCON:101:1,2019-07-03T04:30:00Z,29.2533,-90.6633,1.626,2.83,11111222 
LUMCON,ioos:station:LUMCON:101:1,2019-07-03T04:45:00Z,29.2533,-90.6633,1.623,2.85,11111222 
LUMCON,ioos:station:LUMCON:101:1,2019-07-03T05:00:00Z,29.2533,-90.6633,1.625,2.81,11111222 
LUMCON,ioos:station:LUMCON:101:1,2019-07-03T05:15:00Z,29.2533,-90.6633,1.631,2.8,11111222 
LUMCON,ioos:station:LUMCON:101:1,2019-07-03T05:30:00Z,29.2533,-90.6633,1.626,2.82,11111222 
LUMCON,ioos:station:LUMCON:101:1,2019-07-03T05:45:00Z,29.2533,-90.6633,1.632,2.81,11111222 
LUMCON,ioos:station:LUMCON:101:1,2019-07-03T06:00:00Z,29.2533,-90.6633,1.647,2.79,11111222 
LUMCON,ioos:station:LUMCON:101:1,2019-07-03T06:15:00Z,29.2533,-90.6633,1.668,2.78,11111222 
LUMCON,ioos:station:LUMCON:101:1,2019-07-03T06:30:00Z,29.2533,-90.6633,1.69,2.83,11111222 
LUMCON,ioos:station:LUMCON:101:1,2019-07-03T06:45:00Z,29.2533,-90.6633,1.707,2.85,11111222 
LUMCON,ioos:station:LUMCON:101:1,2019-07-03T07:00:00Z,29.2533,-90.6633,1.733,2.63,11111222 
LUMCON,ioos:station:LUMCON:101:1,2019-07-03T07:15:00Z,29.2533,-90.6633,1.756,2.33,11111222 
LUMCON,ioos:station:LUMCON:101:1,2019-07-03T07:30:00Z,29.2533,-90.6633,1.774,2.27,11111222 
LUMCON,ioos:station:LUMCON:101:1,2019-07-03T07:45:00Z,29.2533,-90.6633,1.793,2.27,11111222 
LUMCON,ioos:station:LUMCON:101:1,2019-07-03T08:00:00Z,29.2533,-90.6633,1.814,2.34,11111222 
LUMCON,ioos:station:LUMCON:101:1,2019-07-03T08:15:00Z,29.2533,-90.6633,1.827,2.46,11111222 
LUMCON,ioos:station:LUMCON:101:1,2019-07-03T08:30:00Z,29.2533,-90.6633,1.845,2.67,11111222 
LUMCON,ioos:station:LUMCON:101:1,2019-07-03T08:45:00Z,29.2533,-90.6633,1.859,2.82,11111222 
LUMCON,ioos:station:LUMCON:101:1,2019-07-03T09:00:00Z,29.2533,-90.6633,1.866,2.89,11111222 
LUMCON,ioos:station:LUMCON:101:1,2019-07-03T09:15:00Z,29.2533,-90.6633,1.876,2.9,11111222 
LUMCON,ioos:station:LUMCON:101:1,2019-07-03T09:30:00Z,29.2533,-90.6633,1.889,2.88,11111222 
LUMCON,ioos:station:LUMCON:101:1,2019-07-03T09:45:00Z,29.2533,-90.6633,1.9,2.9,11111222 
LUMCON,ioos:station:LUMCON:101:1,2019-07-03T10:00:00Z,29.2533,-90.6633,1.913,2.91,11111222 
LUMCON,ioos:station:LUMCON:101:1,2019-07-03T10:15:00Z,29.2533,-90.6633,1.926,2.87,11111222 
LUMCON,ioos:station:LUMCON:101:1,2019-07-03T10:30:00Z,29.2533,-90.6633,1.941,2.82,11111222 
LUMCON,ioos:station:LUMCON:101:1,2019-07-03T10:45:00Z,29.2533,-90.6633,1.954,2.77,11111222 
LUMCON,ioos:station:LUMCON:101:1,2019-07-03T11:00:00Z,29.2533,-90.6633,1.965,2.72,11111222 
LUMCON,ioos:station:LUMCON:101:1,2019-07-03T11:15:00Z,29.2533,-90.6633,1.975,2.72,11111222 
LUMCON,ioos:station:LUMCON:101:1,2019-07-03T11:30:00Z,29.2533,-90.6633,1.988,2.72,11111222 
LUMCON,ioos:station:LUMCON:101:1,2019-07-03T11:45:00Z,29.2533,-90.6633,2.005,2.86,11111222 
LUMCON,ioos:station:LUMCON:101:1,2019-07-03T12:00:00Z,29.2533,-90.6633,2.018,2.89,11111222 
LUMCON,ioos:station:LUMCON:101:1,2019-07-03T12:15:00Z,29.2533,-90.6633,2.024,2.92,11111222 
LUMCON,ioos:station:LUMCON:101:1,2019-07-03T12:30:00Z,29.2533,-90.6633,2.025,2.95,11111222 
LUMCON,ioos:station:LUMCON:101:1,2019-07-03T12:45:00Z,29.2533,-90.6633,2.028,2.96,11111222 
LUMCON,ioos:station:LUMCON:101:1,2019-07-03T13:00:00Z,29.2533,-90.6633,2.036,2.95,11111222 
LUMCON,ioos:station:LUMCON:101:1,2019-07-03T13:15:00Z,29.2533,-90.6633,2.048,2.97,11111222 
LUMCON,ioos:station:LUMCON:101:1,2019-07-03T13:30:00Z,29.2533,-90.6633,2.058,3.04,11111222 
LUMCON,ioos:station:LUMCON:101:1,2019-07-03T13:45:00Z,29.2533,-90.6633,2.067,3.02,11111222 
LUMCON,ioos:station:LUMCON:101:1,2019-07-03T14:00:00Z,29.2533,-90.6633,2.071,3.12,11111222 
LUMCON,ioos:station:LUMCON:101:1,2019-07-03T14:15:00Z,29.2533,-90.6633,2.074,3.1,11111222 
LUMCON,ioos:station:LUMCON:101:1,2019-07-03T14:30:00Z,29.2533,-90.6633,2.077,3.14,11111222 
LUMCON,ioos:station:LUMCON:101:1,2019-07-03T14:45:00Z,29.2533,-90.6633,2.084,3.16,11111222 
LUMCON,ioos:station:LUMCON:101:1,2019-07-03T15:00:00Z,29.2533,-90.6633,2.095,3.17,11111222 
LUMCON,ioos:station:LUMCON:101:1,2019-07-03T15:15:00Z,29.2533,-90.6633,2.108,3.17,11111222 
LUMCON,ioos:station:LUMCON:101:1,2019-07-03T15:30:00Z,29.2533,-90.6633,2.118,3.18,11111222 
LUMCON,ioos:station:LUMCON:101:1,2019-07-03T15:45:00Z,29.2533,-90.6633,2.123,3.22,11111222 
LUMCON,ioos:station:LUMCON:101:1,2019-07-03T16:00:00Z,29.2533,-90.6633,2.129,3.3,11111222 
LUMCON,ioos:station:LUMCON:101:1,2019-07-03T16:15:00Z,29.2533,-90.6633,2.132,3.36,11111222 
LUMCON,ioos:station:LUMCON:101:1,2019-07-03T16:30:00Z,29.2533,-90.6633,2.137,3.39,11111222 
LUMCON,ioos:station:LUMCON:101:1,2019-07-03T16:45:00Z,29.2533,-90.6633,2.142,3.47,11111222 
LUMCON,ioos:station:LUMCON:101:1,2019-07-03T17:00:00Z,29.2533,-90.6633,2.137,3.56,11111222 
LUMCON,ioos:station:LUMCON:101:1,2019-07-03T17:15:00Z,29.2533,-90.6633,2.138,3.6,11111222 
LUMCON,ioos:station:LUMCON:101:1,2019-07-03T17:30:00Z,29.2533,-90.6633,2.141,3.82,11111222 
LUMCON,ioos:station:LUMCON:101:1,2019-07-03T17:45:00Z,29.2533,-90.6633,2.148,4.05,11111222 
LUMCON,ioos:station:LUMCON:101:1,2019-07-03T18:00:00Z,29.2533,-90.6633,2.149,3.92,11111222 
LUMCON,ioos:station:LUMCON:101:1,2019-07-03T18:15:00Z,29.2533,-90.6633,2.146,4.16,11111222 
LUMCON,ioos:station:LUMCON:101:1,2019-07-03T18:30:00Z,29.2533,-90.6633,2.14,4.34,11111222 
LUMCON,ioos:station:LUMCON:101:1,2019-07-03T18:45:00Z,29.2533,-90.6633,2.134,4.38,11111222 
LUMCON,ioos:station:LUMCON:101:1,2019-07-03T19:00:00Z,29.2533,-90.6633,2.128,4.12,11111222 
LUMCON,ioos:station:LUMCON:101:1,2019-07-03T19:15:00Z,29.2533,-90.6633,2.118,4.01,11111222 
LUMCON,ioos:station:LUMCON:101:1,2019-07-03T19:30:00Z,29.2533,-90.6633,2.106,3.9,11111222 
LUMCON,ioos:station:LUMCON:101:1,2019-07-03T19:45:00Z,29.2533,-90.6633,2.093,3.91,11111222 
LUMCON,ioos:station:LUMCON:101:1,2019-07-03T20:00:00Z,29.2533,-90.6633,2.081,3.65,11111222 
LUMCON,ioos:station:LUMCON:101:1,2019-07-03T20:15:00Z,29.2533,-90.6633,2.068,3.58,11111222 
LUMCON,ioos:station:LUMCON:101:1,2019-07-03T20:30:00Z,29.2533,-90.6633,2.054,3.49,11111222 
LUMCON,ioos:station:LUMCON:101:1,2019-07-03T20:45:00Z,29.2533,-90.6633,2.039,3.44,11111222 
LUMCON,ioos:station:LUMCON:101:1,2019-07-03T21:00:00Z,29.2533,-90.6633,2.023,3.4,11111222 
LUMCON,ioos:station:LUMCON:101:1,2019-07-03T21:15:00Z,29.2533,-90.6633,2.009,3.33,11111222 
LUMCON,ioos:station:LUMCON:101:1,2019-07-03T21:30:00Z,29.2533,-90.6633,1.992,3.26,11111222 
LUMCON,ioos:station:LUMCON:101:1,2019-07-03T21:45:00Z,29.2533,-90.6633,1.977,3.19,11111222 
LUMCON,ioos:station:LUMCON:101:1,2019-07-03T22:00:00Z,29.2533,-90.6633,1.958,3.14,11111222 
LUMCON,ioos:station:LUMCON:101:1,2019-07-03T22:15:00Z,29.2533,-90.6633,1.946,3.11,11111222 
LUMCON,ioos:station:LUMCON:101:1,2019-07-03T22:30:00Z,29.2533,-90.6633,1.93,3.07,11111222 
LUMCON,ioos:station:LUMCON:101:1,2019-07-03T22:45:00Z,29.2533,-90.6633,1.916,3.05,11111222 
LUMCON,ioos:station:LUMCON:101:1,2019-07-03T23:00:00Z,29.2533,-90.6633,1.9,3.02,11111222 
LUMCON,ioos:station:LUMCON:101:1,2019-07-03T23:15:00Z,29.2533,-90.6633,1.884,2.99,11111222 
LUMCON,ioos:station:LUMCON:101:1,2019-07-03T23:30:00Z,29.2533,-90.6633,1.869,2.97,11111222 
LUMCON,ioos:station:LUMCON:101:1,2019-07-03T23:45:00Z,29.2533,-90.6633,1.856,2.95,11111222 
LUMCON,ioos:station:LUMCON:101:1,2019-07-04T00:00:00Z,29.2533,-90.6633,1.841,2.94,11111222 
LUMCON,ioos:station:LUMCON:101:1,2019-07-04T00:15:00Z,29.2533,-90.6633,1.828,2.92,11111222 
LUMCON,ioos:station:LUMCON:101:1,2019-07-04T00:30:00Z,29.2533,-90.6633,1.81,2.91,11111222 
LUMCON,ioos:station:LUMCON:101:1,2019-07-04T00:45:00Z,29.2533,-90.6633,1.795,2.9,11111222 
LUMCON,ioos:station:LUMCON:101:1,2019-07-04T01:00:00Z,29.2533,-90.6633,1.78,2.9,11111222 
LUMCON,ioos:station:LUMCON:101:1,2019-07-04T01:15:00Z,29.2533,-90.6633,1.768,2.88,11111222 
LUMCON,ioos:station:LUMCON:101:1,2019-07-04T01:30:00Z,29.2533,-90.6633,1.755,2.87,11111222 
LUMCON,ioos:station:LUMCON:101:1,2019-07-04T01:45:00Z,29.2533,-90.6633,1.744,2.86,11111222 
LUMCON,ioos:station:LUMCON:101:1,2019-07-04T02:00:00Z,29.2533,-90.6633,1.727,2.86,11111222 
LUMCON,ioos:station:LUMCON:101:1,2019-07-04T02:15:00Z,29.2533,-90.6633,1.712,2.85,11111222 
LUMCON,ioos:station:LUMCON:101:1,2019-07-04T02:30:00Z,29.2533,-90.6633,1.699,2.85,11111222 
LUMCON,ioos:station:LUMCON:101:1,2019-07-04T02:45:00Z,29.2533,-90.6633,1.688,2.85,11111222 
LUMCON,ioos:station:LUMCON:101:1,2019-07-04T03:00:00Z,29.2533,-90.6633,1.675,2.82,11111222 
LUMCON,ioos:station:LUMCON:101:1,2019-07-04T03:15:00Z,29.2533,-90.6633,1.665,2.84,11111222 
LUMCON,ioos:station:LUMCON:101:1,2019-07-04T03:30:00Z,29.2533,-90.6633,1.654,2.83,11111222 
LUMCON,ioos:station:LUMCON:101:1,2019-07-04T03:45:00Z,29.2533,-90.6633,1.648,2.83,11111222 
LUMCON,ioos:station:LUMCON:101:1,2019-07-04T04:00:00Z,29.2533,-90.6633,1.638,2.83,11111222 
LUMCON,ioos:station:LUMCON:101:1,2019-07-04T04:15:00Z,29.2533,-90.6633,1.628,2.84,11111222 
LUMCON,ioos:station:LUMCON:101:1,2019-07-04T04:30:00Z,29.2533,-90.6633,1.621,2.83,11111222 
LUMCON,ioos:station:LUMCON:101:1,2019-07-04T04:45:00Z,29.2533,-90.6633,1.616,2.82,11111222 
LUMCON,ioos:station:LUMCON:101:1,2019-07-04T05:00:00Z,29.2533,-90.6633,1.616,2.82,11111222 
LUMCON,ioos:station:LUMCON:101:1,2019-07-04T05:15:00Z,29.2533,-90.6633,1.608,2.82,11111222 
LUMCON,ioos:station:LUMCON:101:1,2019-07-04T05:30:00Z,29.2533,-90.6633,1.62,2.81,11111222 
LUMCON,ioos:station:LUMCON:101:1,2019-07-04T05:45:00Z,29.2533,-90.6633,1.621,2.8,11111222 
LUMCON,ioos:station:LUMCON:101:1,2019-07-04T06:00:00Z,29.2533,-90.6633,1.626,2.81,11111222 
LUMCON,ioos:station:LUMCON:101:1,2019-07-04T06:15:00Z,29.2533,-90.6633,1.624,2.82,11111222 
LUMCON,ioos:station:LUMCON:101:1,2019-07-04T06:30:00Z,29.2533,-90.6633,1.635,2.8,11111222 
LUMCON,ioos:station:LUMCON:101:1,2019-07-04T06:45:00Z,29.2533,-90.6633,1.647,2.79,11111222 
LUMCON,ioos:station:LUMCON:101:1,2019-07-04T07:00:00Z,29.2533,-90.6633,1.655,2.79,11111222 
LUMCON,ioos:station:LUMCON:101:1,2019-07-04T07:15:00Z,29.2533,-90.6633,1.661,2.79,11111222 
LUMCON,ioos:station:LUMCON:101:1,2019-07-04T07:30:00Z,29.2533,-90.6633,1.667,2.79,11111222 
LUMCON,ioos:station:LUMCON:101:1,2019-07-04T07:45:00Z,29.2533,-90.6633,1.676,2.82,11111222 